Main page
METAR-TAF:

METAR-TAF

Airports :

Kharg Airport

Kharg Island, Iran

latitude: 29-15-34N, longitude: 50-19-24E, elevation: 5 m

Current weather observation

The report was made 4 hours and 41 minutes ago, at 15:00 UTC
Wind 4 kt from the South
Temperature 25°C
Humidity 79%
Pressure 1008 hPa
Visibility 10 km or more
Few clouds at a height of 4000 ft

METAR: OIBQ 191500Z 18004KT 9999 FEW040 25/21 Q1008

Time: 00:11 (19:41 UTC)


TAF: missing

Weather observations and forecasts of more than 4000 airports (METAR and TAF reports).

The available stations are represented by yellow and red dots on the map.

Hover mouse over dot to see the name of the station.

Then click to see weather observations and forecasts.

To change the map : click on the green buttons with a black cross to zoom in, on the green button with a dash to zoom out, or on the green arrows for adjacent maps.


METAR-TAF: